Regional Weather Roundup
Issued by NWS Austin/San Antonio, TX

Current Version | Previous Version | Text Only | Print | Product List | Glossary On
Versions: 1 2 3 4 5 6 7 8 9 10 11 12 13 14 15 16 17 18 19 20 21 22 23 24 25 26 27 28 29 30 31 32 33 34 35 36 37 38 39 40 41 42 43 44 45 46 47 48 49 50
000
ASUS44 KEWX 051302
RWREWX
SOUTH TEXAS REGIONAL WEATHER ROUNDUP
NATIONAL WEATHER SERVICE AUSTIN/SAN ANTONIO TX
800 AM CDT SUN JUL 05 2020

NOTE: "FAIR" INDICATED FEW OR NO CLOUDS BELOW 12,000 FEET WITH NO
SIGNIFICANT WEATHER AND/OR OBSTRUCTIONS TO VISIBILITY.

* - THESE STATIONS ARE NOT NWS OR FAA STATIONS...AND ARE NOT SUBJECT
    TO NWS AND FAA QUALITY CONTROL.

TXZ171-172-183>190-051400-
TEXAS HILL COUNTRY AND EDWARDS PLATEAU

CITY           SKY/WX    TMP DP  RH WIND       PRES   REMARKS
JUNCTION       SUNNY     75  68  78 CALM      29.94S
*LLANO         MOSUNNY   75  66  73 CALM      29.93R
BURNET         MOSUNNY   79  69  71 S6        29.92S
*HORSESHOE BAY MOSUNNY   81  70  69 CALM      29.90S
*LAGO VISTA    MOSUNNY   78  70  76 SW7       29.92R
*KERRVILLE     SUNNY     76  72  85 CALM      29.94S
*FREDERICKSBRG MOSUNNY   73  71  92 CALM      29.94S
*ROCKSPRINGS     N/A     73  70  88 SE8       30.01S
*BOERNE        SUNNY     75  70  83 SW5       29.94R
*CASTROVILLE   SUNNY     76  73  91 MISG      29.92S
HONDO          SUNNY     76  71  85 E5        29.90F
*UVALDE          N/A     75  73  93 E6        29.92S
DEL RIO        SUNNY     82  70  66 E10       29.87S
*LAUGHLIN AFB  NOT AVBL
*SPOFFORD      NOT AVBL
*EAGLE PASS    NOT AVBL
CARRIZO SPRGS  SUNNY     77  66  69 CALM      29.87S
$$

TXZ173-191>194-202-209-217>225-228-051400-
CENTRAL AND SOUTH CENTRAL TEXAS

CITY           SKY/WX    TMP DP  RH WIND       PRES   REMARKS
GEORGETOWN     MOSUNNY   79  70  74 S10       29.90S
*TAYLOR        MOSUNNY   76  73  88 S8        29.89R
AUSTIN/BERGSTM MOSUNNY   76  73  91 S6        29.89R
AUSTIN/MABRY   MOSUNNY   78  70  76 CALM      29.90R
*PFLUGERVILLE  MOSUNNY   73  72  94 S5        29.89S
SAN MARCOS     SUNNY     76  73  91 S7        29.91R
NEW BRAUNFELS  LGT RAIN  78  73  84 S8        29.90R
*RANDOLPH AFB  SUNNY     76  75  95 S6        29.90R
*SEGUIN        NOT AVBL
SAN ANTONIO    MOSUNNY   79  72  79 SW7       29.91R
STINSON FIELD  SUNNY     74  74 100 SE5       29.88S
*KELLY FIELD   SUNNY     77  73  87 SE5       29.88S
*PLEASANTON    FOG       75  74  96 E3        29.90S VSB<1/4
*KENEDY        CLOUDY    77  74  90 S5        29.92R
*LA GRANGE     CLOUDY    78  78  99 SW8       29.88S
*GIDDINGS      MOSUNNY   75  73  92 S7        29.90S
*GONZALES      CLOUDY    78  77  98 S6        29.90S
$$

TXZ163>164-176>182-195>201-210>213-226-227-235-051400-
SOUTHEAST TEXAS

CITY           SKY/WX    TMP DP  RH WIND       PRES   REMARKS
COLLEGE STN    MOSUNNY   77  74  90 SW6       29.88S
*BRYAN         MOSUNNY   78  78 100 S5        29.90S
*CALDWELL      PTSUNNY   75 N/A N/A S7        29.89S
*CROCKETT      NOT AVBL
*BRENHAM       MOSUNNY   77  75  93 SW5       29.89F
HUNTSVILLE     PTSUNNY   78  74  87 S7        29.89R
CONROE         CLOUDY    79  75  87 SW8       29.90R
HOUSTON BUSH   PTSUNNY   81  75  82 SW7       29.89R
HOUSTON HOBBY  MOSUNNY   80  76  87 SW8       29.89R
*HOUSTON SW AP MOSUNNY   75  75 100 CALM      29.91R
PEARLAND       SUNNY     79  75  87 SW3       29.91R
HOUSTON HOOKS  CLOUDY    79  74  84 SW9       29.89S
ELLINGTON FLD  NOT AVBL
SUGAR LAND     PTSUNNY   78  77  96 SW5       29.90R
*HOUSTON EXEC  MOSUNNY   79  79 100 SW7       29.91R
*CLEVELAND MUN MOSUNNY   75  75  98 CALM      29.89S FOG
*WHARTON       CLOUDY    76  75  96 SW3       29.91R
*COLUMBUS      FAIR      78  74  89 SW7       29.91R
*EAGLE LAKE    PTSUNNY   79  77  93 SW7       29.89
$$

TXZ214>216-236>238-051400-
THE UPPER TEXAS COAST

CITY           SKY/WX    TMP DP  RH WIND       PRES   REMARKS
*ORANGE        SUNNY     81  77  90 W3        29.90S
PORT ARTHUR    SUNNY     78  78 100 SW5       29.88S
GALVESTON      SUNNY     84  77  79 SW10      29.90S HX  94
ANGLETON       SUNNY     78  76  93 S3        29.90S
*BAY CITY      SUNNY     79  79  99 SW6       29.89S
PALACIOS       MOSUNNY   83  76  79 SW9       29.90R HX  91
$$

TXZ229>234-239>247-051400-
TEXAS COASTAL BEND AND RIO GRANDE PLAINS

CITY           SKY/WX    TMP DP  RH WIND       PRES   REMARKS
VICTORIA       SUNNY     79  75  87 SW3       29.90S
*BEEVILLE      CLOUDY    79  78  99 S8        29.89R
ROCKPORT       MOSUNNY   81  75  82 S8        29.89R
*PORT ARANSAS  MOSUNNY   81  77  87 S13       29.91R
*PORT LAVACA   MOSUNNY   81  79  92 SW7       29.90R HX  91
*INGLESIDE     PTSUNNY   82  79  91 S14       29.89R HX  91
CORPUS CHRISTI MOSUNNY   77  77 100 S6        29.89R
CORPUS NAS     MOSUNNY   79  79 100 S10G18    29.89R
*ROBSTOWN      CLOUDY    76  74  93 S5        29.89R
ALICE          CLOUDY    78  76  93 S10       29.88R
KINGSVILLE NAS SUNNY    N/A N/A N/A CALM      29.88S
COTULLA        SUNNY     77  73  87 E5        29.89R
LAREDO         SUNNY     78  74  87 SE9       29.87R
$$

TXZ248>255-051400-
DEEP SOUTH TEXAS

CITY           SKY/WX    TMP DP  RH WIND       PRES   REMARKS
BROWNSVILLE    SUNNY     79  76  90 S9        29.89R
PORT ISABEL    SUNNY     80  75  84 S10       29.87R
HARLINGEN      MOSUNNY   79  77  94 S10       29.87R
*HEBBRONVILLE  CLOUDY    74  73  97 S6        29.90R FOG
MCALLEN        SUNNY     79  74  84 SE14      29.87R
*WESLACO       MOSUNNY   79  75  89 S9        29.87R
FALFURRIAS     NOT AVBL
EDINBURG       PTSUNNY   78  74  87 S12       29.87S
*ZAPATA        SUNNY     80  75  86 SE5       29.88R
$$

TXZ213>215-236>238-242>244-246-247-251-254-255-051400-
CMAN STATIONS

STATION/POSITION TIME  TEMP    WIND        PRES    WAVE
                       AIR SEA DIR/SP/G            HT/PER
                 (UTC) (F)     (DEG/KT/KT) (MB)    (FT/S)
SABINE PASS      1230   81 88              1013.9
NORTH JETTY/GLS  1230   85 83              1010.8
EAGLE POINT      1230   80 87              1011.5
MORGANS POINT    1230   80 86              1012.1
PORT O`CONNOR    1230   81 87              1011.7
PORT ARANSAS     1200   80 82  180/ 15/ 17 1011.5
MALAQUITE BEACH  1230   80                   N/A
BAFFIN BAY       1230   80 84              1012.1
PORT ISABEL      1230   80 83              1013.6
$$




USA.gov is the U.S. government's official web portal to all federal, state and local government web resources and services.